AB5PM Weather Reports


Display with metric or nautical units.
time (UTC)temp
F
wind
direction
speed
MPH
gust
MPH
rain 1hr
in
rain 24hr
in
rain mn
in
humidity
%
barometer
mb
20260510120016 64 129 0.0 2.0 0.00 0.18 0.18 92 1014.8
20260510113021 64 112 0.0 2.0 0.00 0.18 0.18 91 1014.5
20260510111524 64 111 0.0 1.0 0.00 0.18 0.18 91 1014.4
20260510103019 64 170 2.0 5.0 0.05 0.18 0.18 90 1013.9
20260510101522 64 165 1.0 6.0 0.10 0.18 0.18 90 1013.5
20260510100027 64 101 1.0 8.0 0.18 0.18 0.18 89 1014.0
20260510094521 64 61 1.0 7.0 0.18 0.18 0.18 88 1014.3
20260510093016 65 77 2.0 11.0 0.13 0.13 0.13 84 1014.0
20260510091522 67 77 5.0 14.0 0.08 0.08 0.08 81 1013.4
20260510090024 68 34 3.0 15.0 0.00 0.00 0.00 78 1015.3
20260510084523 70 13 4.0 15.0 0.00 0.00 0.00 77 1013.7
20260510083016 71 69 2.0 7.0 0.00 0.00 0.00 83 1013.3
20260510081533 72 9 2.0 11.0 0.00 0.00 0.00 85 1012.9
20260510080022 74 5 0.0 4.0 0.00 0.00 0.00 88 1013.1
20260510074525 74 46 0.0 3.0 0.00 0.00 0.00 87 1012.4
20260510073030 74 114 1.0 8.0 0.00 0.00 0.00 87 1011.5
20260510071517 74 84 1.0 4.0 0.00 0.00 0.00 86 1011.2
20260510070024 74 49 1.0 10.0 0.00 0.00 0.00 85 1010.9
20260510064522 74 92 4.0 10.0 0.00 0.00 0.00 85 1010.8
20260510063010 74 5 2.0 15.0 0.00 0.00 0.00 84 1012.8
20260510061522 74 64 4.0 10.0 0.00 0.00 0.00 84 1013.3
20260510060018 75 16 1.0 6.0 0.00 0.00 0.00 83 1013.0
20260510054520 75 41 0.0 4.0 0.00 0.00 0.00 82 1011.9
20260510053025 75 101 2.0 7.0 0.00 0.00 0.00 80 1010.6
20260510051526 76 109 1.0 6.0 0.00 0.00 0.00 79 1010.3
20260510050016 76 116 1.0 5.0 0.00 0.00 0.00 78 1010.0
20260510044522 76 144 1.0 7.0 0.00 0.00 0.00 76 1010.0
20260510043024 76 124 2.0 7.0 0.00 0.00 0.00 73 1009.7
20260510041523 76 124 1.0 5.0 0.00 0.00 0.00 73 1009.7
20260510040026 76 142 1.0 5.0 0.00 0.00 0.00 72 1009.6
20260510034518 76 117 1.0 7.0 0.00 0.00 0.00 72 1009.9
20260510033023 77 113 1.0 6.0 0.00 0.00 0.00 71 1010.2
20260510031540 77 121 0.0 8.0 0.00 0.00 0.00 70 1010.0
20260510030034 77 98 0.0 3.0 0.00 0.00 0.00 70 1010.0
20260510024526 78 120 1.0 4.0 0.00 0.00 0.00 69 1009.9
20260510023021 78 98 1.0 4.0 0.00 0.00 0.00 68 1010.0
20260510021529 79 88 0.0 4.0 0.00 0.00 0.00 66 1009.8
20260510020028 79 106 0.0 3.0 0.00 0.00 0.00 65 1009.8
20260510014528 80 80 0.0 3.0 0.00 0.00 0.00 63 1009.6
20260510013026 81 88 0.0 3.0 0.00 0.00 0.00 62 1009.5
20260510011528 82 99 0.0 4.0 0.00 0.00 0.00 60 1009.3
20260510010010 83 111 0.0 6.0 0.00 0.00 0.00 57 1009.0
20260510004509 84 92 0.0 4.0 0.00 0.00 0.00 53 1009.0
20260510003010 85 97 1.0 8.0 0.00 0.00 0.00 53 1008.9
20260510001510 85 106 2.0 8.0 0.00 0.00 0.00 53 1008.9
20260510000013 86 113 2.0 8.0 0.00 0.00 0.00 53 1008.9
20260509234511 87 114 2.0 6.0 0.00 0.00 0.00 53 1009.0
20260509233013 87 110 2.0 8.0 0.00 0.00 0.00 53 1009.2
20260509231512 87 105 2.0 7.0 0.00 0.00 0.00 54 1009.1
20260509230016 88 84 3.0 7.0 0.00 0.00 0.00 54 1009.1
20260509224515 88 152 1.0 6.0 0.00 0.00 0.00 56 1009.2
20260509223018 88 184 2.0 8.0 0.00 0.00 0.00 55 1009.0
20260509221512 89 77 3.0 9.0 0.00 0.00 0.00 54 1008.9
20260509220015 89 109 2.0 9.0 0.00 0.00 0.00 55 1008.8
20260509214515 89 98 1.0 7.0 0.00 0.00 0.00 55 1008.9
20260509213015 89 88 3.0 7.0 0.00 0.00 0.00 56 1009.0
20260509211516 89 84 1.0 7.0 0.00 0.00 0.00 56 1009.3
20260509210016 89 90 2.0 6.0 0.00 0.00 0.00 56 1009.6
20260509204516 89 122 2.0 6.0 0.00 0.00 0.00 57 1009.7
20260509203015 89 113 1.0 6.0 0.00 0.00 0.00 54 1009.7
20260509200016 89 332 1.0 6.0 0.00 0.00 0.00 51 1010.0
20260509194516 88 336 1.0 7.0 0.00 0.00 0.00 48 1010.2
20260509193021 87 87 2.0 4.0 0.00 0.00 0.00 54 1010.3
20260509190014 86 46 3.0 8.0 0.00 0.00 0.00 59 1010.4
20260509184521 85 84 2.0 6.0 0.00 0.00 0.00 59 1010.7
20260509183004 85 291 1.0 6.0 0.00 0.00 0.00 63 1010.8
20260509181507 83 49 1.0 6.0 0.00 0.00 0.00 67 1011.0
20260509180011 81 321 2.0 6.0 0.00 0.00 0.00 69 1011.0
20260509174520 80 300 2.0 4.0 0.00 0.00 0.00 72 1011.3
20260509173052 80 300 1.0 4.0 0.00 0.00 0.00 72 1011.5
20260509171512 79 22 0.0 6.0 0.00 0.00 0.00 74 1011.7
20260509170014 78 14 2.0 5.0 0.00 0.00 0.00 75 1011.7
20260509164518 77 360 2.0 8.0 0.00 0.00 0.00 76 1011.6
20260509163024 77 48 2.0 8.0 0.00 0.00 0.00 78 1011.7
20260509161522 75 319 1.0 8.0 0.00 0.00 0.00 80 1011.8
20260509160014 74 360 2.0 4.0 0.00 0.00 0.00 81 1011.7
20260509154512 74 360 1.0 5.0 0.00 0.00 0.00 83 1011.8
20260509153030 73 5 2.0 8.0 0.00 0.00 0.00 84 1011.7
20260509151523 72 281 1.0 5.0 0.00 0.00 0.00 87 1011.7
20260509150009 71 334 1.0 4.0 0.00 0.00 0.00 88 1011.7
20260509144510 71 302 2.0 6.0 0.00 0.00 0.00 89 1011.7
20260509143016 70 355 0.0 5.0 0.00 0.00 0.00 90 1011.5
20260509141520 70 292 1.0 5.0 0.00 0.00 0.00 91 1011.4
20260509140025 70 310 2.0 4.0 0.00 0.00 0.00 91 1011.3
20260509134510 70 319 0.0 3.0 0.00 0.00 0.00 92 1011.3
20260509133010 69 257 0.0 3.0 0.00 0.00 0.00 92 1011.1
20260509131516 69 38 0.0 0.0 0.00 0.00 0.00 92 1011.2
20260509130050 69 40 0.0 0.0 0.00 0.00 0.00 92 1011.1
20260509124532 69 104 0.0 0.0 0.00 0.00 0.00 91 1011.0
20260509123011 68 117 0.0 0.0 0.00 0.00 0.00 91 1010.9
20260509121514 68 117 0.0 0.0 0.00 0.00 0.00 90 1010.8